{"data":{"norad_id":31573,"intl_designator":"2007-020C","name":"GLOBALSTAR M069","alt_names":[],"object_type":"PAYLOAD","status":"ACTIVE","operator":null,"country":"GLOB","launch_date":"2007-05-29","launch_site_code":"TYMSC","launch_vehicle":null,"mission":null,"orbit_class":"UNKNOWN","rcs_meters":2.4163,"size_class":null,"mass_kg":null,"dimensions":null,"purposes":["comms"],"wikipedia_slug":null,"has_3d_model":false,"image_url":null,"decayed_at":null,"tle_current":{"epoch":"2026-05-24T17:36:15.085152Z","epoch_age_seconds":95252,"freshness":"FRESH","line1":"1 31573U 07020C   26144.73350793 -.00000065  00000+0  25508-3 0  9996","line2":"2 31573  52.0045 318.5088 0002674 100.6778 273.4600 12.23470479875931","mean_motion":12.23470479,"eccentricity":0.0002674,"inclination_deg":52.0045,"raan_deg":318.5088,"arg_perigee_deg":100.6778,"mean_anomaly_deg":273.46,"bstar":0.00025508,"rev_number":87593,"period_min":117.69797675682,"perigee_km":1575.333946051,"apogee_km":1579.5886000074,"semimajor_km":7955.5982730292,"source":"CELESTRAK","updated_at":"2026-05-25T13:38:23.038275Z"}}}